User: anonymous
Location: Fort Wayne
(41.1310°N, 85.1290°W)
Time: 20:32:43
(UTC-04:00)
Language:

Oscar 19 - Orbit

View from above orbital plane
View from above orbital plane
View from above satellite
View from above satellite

Ground track
Ground track

The orbit data is extracted from the following two-line orbital elements,

1 20442U 90005G   14208.86466780  .00000101  00000-0  52876-4 0   159
2 20442 098.4786 145.9697 0012267 033.9473 326.2494 14.32571482280506
Epoch (UTC): 27 July 2014 20:45:07
Eccentricity: 0.0012267
inclination: 98.4786°
perigee height: 774 km
apogee height: 792 km
right ascension of ascending node: 145.9697°
argument of perigee: 33.9473°
revolutions per day: 14.32571482
mean anomaly at epoch: 326.2494°
orbit number at epoch: 28050

The dashed part of the orbit path shows where the satellite is in the earth's shadow,  

DLR